Change the Weather History Date:

Sunday, March 16, 2014

  Actual Average Record
Temperature  
Mean Temperature 30 °F -  
Max Temperature 39 °F 49 °F 82 °F (2012)
Min Temperature 21 °F 27 °F 6 °F (1962)
Degree Days  
Heating Degree Days 35    
Moisture  
Dew Point 16 °F    
Average Humidity 57    
Maximum Humidity 93    
Minimum Humidity 33    
Precipitation  
Precipitation 0.00 in - - ()
Sea Level Pressure  
Sea Level Pressure 30.24 in    
Wind  
Wind Speed 15 mph (NNE)    
Max Wind Speed 24 mph    
Max Gust Speed 32 mph    
Visibility 10 miles    
Events Snow    
Averages and records for this station are not official NWS values.
T = Trace of Precipitation, MM = Missing Value Source: NWS Daily Summary

Daily Weather History Graph

Daily Weather History Graph

Search for Another Location

Airport or City:

Trip Planner

Search our weather history database for the weather conditions in past years. The results will help you decide how hot, cold, wet, or windy it might be!

Date:

Astronomy

Mar. 16, 2014 Rise Set
Actual Time 7:40 AM CDT 7:38 PM CDT
Civil Twilight 7:13 AM CDT 8:05 PM CDT
Nautical Twilight 6:41 AM CDT 8:37 PM CDT
Astronomical Twilight 6:08 AM CDT 9:10 PM CDT
Moon 7:57 PM CDT (3/16) 7:24 AM CDT (3/16)
Length of Visible Light 12h 52m
Length of Day
11h 57m
Full, 100% of the Moon is Illuminated
Mar 16
Full
Mar 16
Full
Mar 23
Last Quarter
Mar 30
New
Apr 7
First Quarter

Hourly Weather History & Observations

Time (CDT) Temp. Windchill Dew Point Humidity Pressure Visibility Wind Dir Wind Speed Gust Speed Precip Events Conditions
12:15 AM 28.4 °F 14.7 °F 26.6 °F 93% 30.25 in 3.0 mi NNE 21.9 mph 31.1 mph N/A   Mostly Cloudy
12:35 AM 28.4 °F 14.1 °F 26.6 °F 93% 30.26 in 2.0 mi North 24.2 mph 28.8 mph N/A Snow Light Snow
12:55 AM 28.4 °F 15.1 °F 26.6 °F 93% 30.26 in 3.0 mi NNE 20.7 mph 32.2 mph N/A Snow Light Snow
1:15 AM 26.6 °F 12.0 °F 24.8 °F 93% 30.27 in 10.0 mi NNE 23.0 mph 28.8 mph N/A   Mostly Cloudy
1:35 AM 28.4 °F 14.7 °F 24.8 °F 86% 30.28 in 10.0 mi NNE 21.9 mph 26.5 mph N/A   Overcast
1:55 AM 28.4 °F 14.7 °F 24.8 °F 86% 30.29 in 10.0 mi NNE 21.9 mph 26.5 mph N/A   Overcast
2:15 AM 26.6 °F 12.4 °F 23.0 °F 86% 30.29 in 10.0 mi North 21.9 mph 25.3 mph N/A Snow Light Snow
2:35 AM 26.6 °F 13.1 °F 23.0 °F 86% 30.29 in 10.0 mi NNE 19.6 mph 23.0 mph N/A   Overcast
2:55 AM 26.6 °F 13.8 °F 21.2 °F 80% 30.30 in 10.0 mi NNE 17.3 mph 23.0 mph N/A   Overcast
3:15 AM 26.6 °F 12.7 °F 21.2 °F 80% 30.30 in 10.0 mi NNE 20.7 mph 27.6 mph N/A   Overcast
3:35 AM 26.6 °F 13.4 °F 19.4 °F 74% 30.31 in 10.0 mi North 18.4 mph 24.2 mph N/A   Overcast
3:55 AM 26.6 °F 13.1 °F 19.4 °F 74% 30.31 in 10.0 mi North 19.6 mph 24.2 mph N/A   Overcast
4:15 AM 26.6 °F 13.4 °F 19.4 °F 74% 30.32 in 10.0 mi North 18.4 mph 23.0 mph N/A   Overcast
4:30 AM 26.6 °F 13.1 °F 19.4 °F 74% 30.31 in 10.0 mi North 19.6 mph 26.5 mph N/A   Overcast
5:35 AM 24.8 °F 11.5 °F 19.4 °F 80% 30.31 in 10.0 mi North 17.3 mph - N/A   Overcast
5:55 AM 23.0 °F 10.1 °F 19.4 °F 86% 30.31 in 10.0 mi North 15.0 mph 23.0 mph N/A   Overcast
6:15 AM 23.0 °F 10.1 °F 17.6 °F 80% 30.31 in 10.0 mi North 15.0 mph - N/A   Mostly Cloudy
6:35 AM 23.0 °F 10.6 °F 17.6 °F 80% 30.31 in 10.0 mi North 13.8 mph - N/A   Partly Cloudy
7:15 AM 21.2 °F 8.9 °F 17.6 °F 86% 30.32 in 10.0 mi North 12.7 mph - N/A   Clear
7:35 AM 21.2 °F 8.9 °F 17.6 °F 86% 30.32 in 10.0 mi North 12.7 mph 18.4 mph N/A   Clear
7:55 AM 21.2 °F 9.5 °F 17.6 °F 86% 30.32 in 10.0 mi North 11.5 mph - N/A   Clear
8:15 AM 21.2 °F 8.9 °F 17.6 °F 86% 30.33 in 10.0 mi North 12.7 mph - N/A   Clear
8:35 AM 23.0 °F 9.6 °F 17.6 °F 80% 30.35 in 10.0 mi North 16.1 mph 20.7 mph N/A   Clear
8:55 AM 24.8 °F 11.9 °F 17.6 °F 74% 30.37 in 10.0 mi North 16.1 mph 24.2 mph N/A   Clear
9:15 AM 24.8 °F 10.7 °F 17.6 °F 74% 30.38 in 10.0 mi North 19.6 mph 28.8 mph N/A   Clear
9:35 AM 26.6 °F 13.1 °F 17.6 °F 69% 30.38 in 10.0 mi NNE 19.6 mph 23.0 mph N/A   Clear
9:55 AM 26.6 °F 14.3 °F 15.8 °F 64% 30.37 in 10.0 mi NNE 16.1 mph - N/A   Clear
10:15 AM 26.6 °F 14.7 °F 15.8 °F 64% 30.37 in 10.0 mi NNE 15.0 mph - N/A   Clear
10:35 AM 28.4 °F 17.5 °F 15.8 °F 59% 30.36 in 10.0 mi NNE 13.8 mph - N/A   Clear
10:55 AM 28.4 °F 17.5 °F 15.8 °F 59% 30.35 in 10.0 mi NNE 13.8 mph - N/A   Clear
11:15 AM 30.2 °F 19.3 °F 14.0 °F 51% 30.36 in 10.0 mi NNE 15.0 mph - N/A   Clear
11:35 AM 32.0 °F 22.1 °F 14.0 °F 48% 30.35 in 10.0 mi NNE 13.8 mph 19.6 mph N/A   Clear
11:55 AM 32.0 °F 22.1 °F 14.0 °F 48% 30.35 in 10.0 mi NNE 13.8 mph 24.2 mph N/A   Clear
12:15 PM 32.0 °F 21.2 °F 14.0 °F 48% 30.34 in 10.0 mi North 16.1 mph 23.0 mph N/A   Clear
12:35 PM 32.0 °F 22.1 °F 12.2 °F 44% 30.33 in 10.0 mi NNE 13.8 mph - N/A   Clear
12:55 PM 33.8 °F 23.9 °F 12.2 °F 41% 30.32 in 10.0 mi NNE 15.0 mph 19.6 mph N/A   Clear
1:15 PM 35.6 °F 26.2 °F 12.2 °F 38% 30.31 in 10.0 mi NNE 15.0 mph - N/A   Clear
1:35 PM 35.6 °F 29.2 °F 12.2 °F 38% 30.30 in 10.0 mi NNE 8.1 mph - N/A   Clear
1:55 PM 35.6 °F 30.7 °F 12.2 °F 38% 30.29 in 10.0 mi North 5.8 mph 16.1 mph N/A   Clear
2:15 PM 37.4 °F 29.8 °F 14.0 °F 38% 30.27 in 10.0 mi North 11.5 mph 19.6 mph N/A   Clear
2:35 PM 37.4 °F 32.8 °F 12.2 °F 36% 30.25 in 10.0 mi NNE 5.8 mph - N/A   Clear
2:55 PM 37.4 °F 32.1 °F 14.0 °F 38% 30.24 in 10.0 mi NNE 6.9 mph - N/A   Clear
3:15 PM 37.4 °F - 12.2 °F 36% 30.22 in 10.0 mi Calm Calm - N/A   Clear
3:35 PM 39.2 °F 33.6 °F 14.0 °F 36% 30.21 in 10.0 mi NNE 8.1 mph - N/A   Clear
3:55 PM 37.4 °F - 14.0 °F 38% 30.21 in 10.0 mi Calm Calm - N/A   Clear
4:15 PM 39.2 °F - 14.0 °F 36% 30.20 in 10.0 mi Calm Calm - N/A   Clear
4:35 PM 39.2 °F 35.9 °F 14.0 °F 36% 30.19 in 10.0 mi NNE 4.6 mph - N/A   Clear
4:55 PM 39.2 °F - 14.0 °F 36% 30.18 in 10.0 mi Calm Calm - N/A   Clear
5:15 PM 39.2 °F - 14.0 °F 36% 30.17 in 10.0 mi Calm Calm - N/A   Clear
5:35 PM 39.2 °F 35.9 °F 14.0 °F 36% 30.17 in 10.0 mi NNW 4.6 mph - N/A   Clear
5:55 PM 39.2 °F - 14.0 °F 36% 30.15 in 10.0 mi Calm Calm - N/A   Clear
6:15 PM 39.2 °F - 12.2 °F 33% 30.13 in 10.0 mi Calm Calm - N/A   Clear
6:35 PM 39.2 °F - 12.2 °F 33% 30.14 in 10.0 mi Calm Calm - N/A   Clear
6:55 PM 39.2 °F - 12.2 °F 33% 30.15 in 10.0 mi Calm Calm - N/A   Clear
7:15 PM 39.2 °F - 12.2 °F 33% 30.13 in 10.0 mi Calm Calm - N/A   Clear
7:35 PM 37.4 °F 34.9 °F 12.2 °F 36% 30.12 in 10.0 mi South 3.5 mph - N/A   Clear
7:55 PM 35.6 °F 30.7 °F 12.2 °F 38% 30.10 in 10.0 mi SSE 5.8 mph - N/A   Clear
8:15 PM 33.8 °F 28.6 °F 10.4 °F 38% 30.09 in 10.0 mi SSE 5.8 mph - N/A   Clear
8:35 PM 32.0 °F 25.6 °F 10.4 °F 41% 30.09 in 10.0 mi SE 6.9 mph - N/A   Clear
8:55 PM 32.0 °F 25.6 °F 10.4 °F 41% 30.09 in 10.0 mi SSE 6.9 mph - N/A   Clear
9:20 PM 30.2 °F 22.6 °F 10.4 °F 44% 30.08 in 10.0 mi SSE 8.1 mph - N/A   Clear
9:35 PM 30.2 °F 24.3 °F 10.4 °F 44% 30.08 in 10.0 mi SSE 5.8 mph - N/A   Clear
9:55 PM 32.0 °F 24.8 °F 10.4 °F 41% 30.08 in 10.0 mi SSE 8.1 mph - N/A   Clear
10:10 PM 28.4 °F 21.2 °F 10.4 °F 47% 30.07 in 10.0 mi SSE 6.9 mph - N/A   Clear
10:35 PM 30.2 °F 23.4 °F 10.4 °F 44% 30.06 in 10.0 mi SSE 6.9 mph - N/A   Clear
10:55 PM 30.2 °F 22.6 °F 10.4 °F 44% 30.05 in 10.0 mi South 8.1 mph - N/A   Clear
11:15 PM 28.4 °F 19.7 °F 10.4 °F 47% 30.04 in 10.0 mi South 9.2 mph - N/A   Clear
11:35 PM 28.4 °F 19.7 °F 10.4 °F 47% 30.04 in 10.0 mi South 9.2 mph - N/A   Clear
11:55 PM 28.4 °F 19.7 °F 10.4 °F 47% 30.02 in 10.0 mi South 9.2 mph - N/A   Clear